Regional Weather Roundup
Issued by NWS Pendleton, OR

Home | Current Version | Previous Version | Text Only | Print | Product List | Glossary On
Versions: 1 2 3 4 5 6 7 8 9 10 11 12 13 14 15 16 17 18 19 20 21 22 23 24 25 26 27 28 29 30 31 32 33 34 35 36 37 38 39 40 41 42 43 44 45 46 47 48 49 50
132
ASUS46 KPDT 270725
RWRPDT
PENDLETON REGIONAL WEATHER ROUNDUP
NATIONAL WEATHER SERVICE PENDLETON OREGON
1200 AM PDT WED JUL 27 2016

NOTE: FAIR INDICATES FEW OR NO CLOUDS BELOW 12,000 FEET WITH NO
SIGNIFICANT WEATHER AND/OR OBSTRUCTIONS TO VISIBILITY.

# INDICATES UNOFFICIAL STATION AND DATA

WAZ520-270810-
EAST SLOPES OF WASHINGTON CASCADES

CITY            SKY/WX      TMP DP  RH  WIND    PRES   REMARKS
#CLE ELUM HS    N/A         65  55  70  W7      30.03S
#CLE ELUM 2NW   N/A         64  54  70  W3      N/A
#GLENWOOD       N/A         60  55  84  CALM    29.94S
#MANASTASH CYN  N/A         65  47  52  CALM    30.06R
#NELSON 3SW     N/A         64  53  67  CALM    30.14S
#NILE           N/A         61  54  78  CALM    29.29R
#RONALD 2NW     N/A         61  N/A N/A NE1     30.17S
#TEANAWAY 4NE   N/A         62  56  81  CALM    N/A
#TROUT LAKE 1NE N/A         64  55  73  CALM    29.93S
#TROUT LAKE 1E  N/A         63  56  78  CALM    30.01
$$

WAZ521-270810-
SIMCOE HIGHLANDS

CITY            SKY/WX      TMP DP  RH  WIND    PRES   REMARKS
#CENTERVILLE 1SWN/A         68  56  65  W3      29.88S
#GOLDENDALE 1NE N/A         66  43  43  CALM    N/A
#GOLDENDALE 4W  N/A         69  61  76  W5      30.04S
#GOODNOE HILLS  N/A         70  58  66  NW7     29.90R
#LYLE 6NE       N/A         68  58  70  S5      29.92S
$$

WAZ026-270810-
KITTITAS VALLEY

CITY            SKY/WX      TMP DP  RH  WIND    PRES   REMARKS
ELLENSBURG AP   CLEAR       70  55  59  NW20G28 30.04R
#ELLENSBURG CWU N/A         69  56  63  N12     29.90R
#ELLENSBURG 3NE N/A         67  57  70  N7      30.03R
#ELLENSBURG     N/A         72  59  64  NW6     N/A
#ELLENSBURG 1E  N/A         70  N/A N/A CALM    N/A
#KITTITAS 4N    N/A         66  54  65  SW3     30.07R
#KITTITAS 3S    N/A         64  56  75  CALM    29.93R
#THORP 6N       N/A         65  55  70  NW8     29.96S
$$

WAZ027-270810-
YAKIMA VALLEY

CITY            SKY/WX      TMP DP  RH  WIND    PRES   REMARKS
SUNNYSIDE AP    CLEAR       70  54  57  CALM    29.95R
YAKIMA AIRPORT  CLEAR       78  49  36  N10     30.00R
YAKIMA-VAGABOND N/A         71  51  49  E8      29.99F
#DONALD 2NE     N/A         78  16  10  N5      29.94R
#GRANDVIEW      N/A         76  49  39  CALM    29.92R
#MABTON         N/A         76  54  46  SW2     29.94R
#NACHES 2SW     N/A         71  54  55  W13     30.00S
#TERRACE HTS    N/A         74  52  46  N2      29.87S
#TOPPENISH      N/A         77  53  43  CALM    29.83S
#WEST VALLEY    N/A         75  52  45  NW9     29.90R
#W YAKIMA       N/A         74  54  50  N3      29.92S
#WHITE SWAN 5E  N/A         71  54  55  E7      29.92R
#WILEY CITY 3W  N/A         73  41  31  CALM    29.98R
$$

WAZ028-270810-
LOWER COLUMBIA BASIN...WASHINGTON

CITY            SKY/WX      TMP DP  RH  WIND    PRES   REMARKS
HANFORD         CLEAR       80  51  36  NW20G28 29.92R
PASCO           CLEAR       80  53  39  NW12    29.91R
PROSSER AWOS    N/A         73  52  48  W8      29.98R
RICHLAND AWOS   CLEAR       84  54  36  NW13    29.91R
#BENTON CITY    N/A         81  53  38  W5      29.78S
#CONNELL 5N     N/A         74  55  51  E3      29.88R
#CONNELL 5NW    N/A         68  57  68  CALM    29.84R
#ELTOPIA 6NW    N/A         73  58  59  CALM    28.91R
#KAHLOTUS       N/A         76  55  48  E15     29.86R
#KENNEWICK 3S   N/A         79  55  44  CALM    29.89R
#PATERSON       N/A         73  61  66  E7      29.88R
#SAGEMOOR 2W    N/A         76  55  48  NW7     29.73R
#TOUCHET 2S     N/A         78  57  48  SW8     29.86R
#WEST PASCO     N/A         83  56  40  NW6     29.88S
$$

WAZ029-270810-
FOOTHILLS OF THE BLUES...WASHINGTON

CITY            SKY/WX      TMP DP  RH  WIND    PRES   REMARKS
WALLA WALLA AP  CLEAR       77  48  36  S12     29.96R
#CLYDE 6NW      N/A         72  52  49  CALM    29.86R
#DAYTON SCHOOL  N/A         71  47  42  N1      29.98R
#LOWDEN 2SE     N/A         66  56  70  E3      29.89R
#PLEASANT VIEW 1N/A         76  51  42  W1      29.90R
#PRESCOTT       N/A         64  54  70  CALM    29.87R
#WHITMAN COLLEGEN/A         76  54  46  SE3     29.94R
#WAITSBURG 5S   N/A         72  48  43  CALM    29.96R
#WAITSBURG 8N   N/A         70  24  18  CALM    29.92S
#WALLA WALLA U  N/A         77  54  45  CALM    29.89R
#WHITMAN MISSIONN/A         72  58  61  CALM    29.91R
$$

WAZ030-270810-
BLUE MOUNTAINS...WASHINGTON

CITY            SKY/WX      TMP DP  RH  WIND    PRES   REMARKS
#DIXIE 5SE      N/A         66  54  65  SW6     30.00R
$$

ORZ009-041-WAZ024-270810-
COLUMBIA RIVER GORGE

CITY            SKY/WX      TMP DP  RH  WIND    PRES   REMARKS
HOOD RIVER AP   CLEAR       68  57  68  W3      30.01S
THE DALLES AP   CLEAR       75  58  56  NW13G24 29.96S
#ARLINGTON AIRPON/A         74  58  57  W9      29.93R
#LYLE           N/A         74  61  64  W9      29.97R
#MARYHILL 2W    N/A         77  57  50  W7      N/A
#MOSIER 1S      N/A         71  46  41  NW9     30.00S
#MURDOCK        N/A         76  60  58  NW16G26 29.91S
#RUFUS DOT      N/A         78  58  50  W13     N/A
#SMITHVILLE     N/A         75  59  58  W15G25  29.94R

$$

ORZ510-270810-
NORTH CENTRAL OREGON

CITY            SKY/WX      TMP DP  RH  WIND    PRES   REMARKS
#ANTELOPE       N/A         59  45  60  CALM    29.79R
#CHENOWITH 1W   N/A         68  55  63  W28     N/A
#COW CYN RST AREN/A         68  N/A N/A E1      N/A
#DUFUR 9E       N/A         68  54  61  W6      29.97S
#GRASS VALLEY 1SN/A         63  50  62  W1      29.99S
#KENT DOT       N/A         63  44  50  N9      N/A
#MAUPIN SCHOOL  N/A         72  57  59  CALM    30.03R
#SHANIKO 5WSW   N/A         66  43  43  CALM    N/A
#SHANIKO 4NW    N/A         66  55  68  W3      30.12S
#TYGH VALLEY 2NEN/A         66  52  61  CALM    29.94R
#WAPANITIA AIRPON/A         65  54  68  W2      29.94S
#WASCO DOT      N/A         68  57  68  SW2     N/A
#WASCO AIRPORT  N/A         69  54  59  W7      N/A
#WASCO 5NE      N/A         68  57  68  W3      29.91R
$$

ORZ511-270810-
CENTRAL OREGON

CITY            SKY/WX      TMP DP  RH  WIND    PRES   REMARKS
BEND AIRPORT    CLEAR       59  43  55  CALM    30.12S
MADRAS AIRPORT  CLEAR       68  52  57  N3      30.09S
PRINEVILLE AP   CLEAR       63  37  38  CALM    30.11R
REDMOND AIRPORT CLEAR       61  37  41  S6      30.10S
#ASHWOOD SCHOOL N/A         64  43  46  CALM    30.04R
#BEND 1SW       N/A         59  47  64  CALM    N/A
#BEND-AWBREY    N/A         64  45  50  NE1     30.06S
#CULVER         N/A         65  48  54  NE3     29.88R
#CULVER 8W      N/A         61  43  51  CALM    30.08S
#LAKE BILLY CHINN/A         67  N/A N/A SE5     30.12S
#MADRAS 4S      N/A         63  16  16  CALM    30.14F
#POWELL BUTTE 3EN/A         66  35  32  SW3     N/A
#POWELL BUTTE   N/A         65  43  45  S1      30.05S
#PRINEVILLE 3N  N/A         65  49  56  NE6     29.98S
#WARM SPRINGS   N/A         72  52  49  CALM    30.01R

$$


ORZ509-270810-
EAST SLOPES OF OREGON CASCADES

CITY            SKY/WX      TMP DP  RH  WIND    PRES   REMARKS
SISTERS AWOS    N/A         61  48  62  S5      30.08S
#CAMP SHERMAN   N/A         56  47  72  CALM    30.02R
#LA PINE DOT    N/A         62  49  62  CALM    N/A
#LA PINE 4NW    N/A         54  46  74  CALM    29.98S
#LAVA BUTTE DOT N/A         58  41  53  CALM    N/A
#SISTERS AIRPOR N/A         60  54  81  N5      30.17S
#SISTERS ODOT   N/A         57  N/A N/A CALM    N/A
#SISTERS 3N     N/A         60  44  55  CALM    30.08S
#SUNRIVER       N/A         59  49  69  CALM    29.95S
#SUTTLE LK DOT  N/A         58  49  72  NE22G35 N/A
#TUMALO 3W      N/A         66  45  47  CALM    29.82R
#WANOGA BUTTE D N/A         64  37  37  CALM    N/A

$$

ORZ044-270810-
LOWER COLUMBIA BASIN...OREGON

CITY            SKY/WX      TMP DP  RH  WIND    PRES   REMARKS
HERMISTON       CLEAR       76  56  50  SW6     29.94R
#BOARDMAN 8SW   N/A         73  60  64  SW8     29.91R
#ECHO 8SW       N/A         77  54  45  SW14    29.95R
#I-84 EX 198 DOTN/A         76  55  48  E9      N/A
#UMATILLA       N/A         74  55  51  CALM    29.83R
$$

ORZ507-270810-
NORTHERN FOOTHILLS OF THE BLUES

CITY            SKY/WX      TMP DP  RH  WIND    PRES   REMARKS
PENDLETON AIRPT CLEAR       70  46  42  CALM    29.98R
#ADAMS 3WNW     N/A         68  49  51  N1      29.90R
#ATHENA         N/A         66  49  54  CALM    29.93R
#CAYUSE         N/A         71  50  47  NE1     29.89R
#HELIX SCHOOL   N/A         73  53  49  CALM    29.90R
#HELIX 3N       N/A         71  52  51  N15     29.97R
#HOLDMAN 5SE    N/A         71  52  51  CALM    29.98R
#HOLDMAN 6E     N/A         71  52  51  CALM    29.72R
#M-F GROVE ELEM N/A         77  46  33  SW2     29.94R
#M-FREEWATER 5SEN/A         71  52  51  CALM    29.98R
#PENDLETON DNTN N/A         69  42  37  NE1     29.98S
#PDT AQUATIC CTRN/A         70  40  34  CALM    29.83R
#PDT SUNRIDGE   N/A         67  47  49  CALM    29.99R
#PENDLETON 7NW  N/A         67  48  50  CALM    31.91S
#PILOT ROCK 1S  N/A         71  43  36  CALM    30.01R
#PILOT ROCK     N/A         70  44  39  S1      30.02S
#TUTUILLA       N/A         60  48  64  CALM    29.93R
#UMAPINE 2E     N/A         67  57  70  S3      29.92R
#WESTON SCHOOL  N/A         73  47  40  NW2     29.85R

$$

ORZ508-270810-
SOUTHERN FOOTHILLS OF THE BLUES

CITY            SKY/WX      TMP DP  RH  WIND    PRES   REMARKS
LEXINGTON       CLEAR       70  52  53  CALM    30.04S
#CONDON 5W      N/A         65  49  56  NW8     30.06S
#HEPPNER EOC    N/A         67  49  52  SE8     29.85S
#HEPPNER 4NE    N/A         67  52  59  S1      29.90S
#LEXINGTON 2SE  N/A         68  51  55  SE5     29.97R
#RUGGS 5NE      N/A         64  42  45  CALM    30.27R
#RUGGS 2SW      N/A         67  47  49  SW7     29.93R

$$

ORZ502-503-270810-
BLUE MOUNTAINS

CITY            SKY/WX      TMP DP  RH  WIND    PRES   REMARKS
MEACHAM         CLEAR       54  46  74  CALM    30.13S
#BATTLE MTN DOT N/A         60  42  51  NE1     N/A
#CUTSFORTH PARK N/A         54  46  74  CALM    29.92S
#GREENHORN 9SW  N/A         57  45  64  CALM    30.11R
#HARDMAN 10S    N/A         61  34  36  N5      30.22R
#HEPPNER 15SE   N/A         57  43  59  CALM    25.66S
#LADD CYN SMT   N/A         63  45  52  NE1     N/A
#LADD CREEK ODOTN/A         66  48  52  W1      N/A
#LONG CREEK HS  N/A         63  47  56  CALM    N/A
#N POWDER DOT   N/A         65  50  58  NW6     N/A
#PIKES PEAK     N/A         72  47  41  SW14    27.99S
#TOLLGATE       N/A         57  45  64  CALM    30.03S
#TROY SCHOOL    N/A         72  54  53  CALM    29.74R
#UKIAH          N/A         56  47  72  CALM    29.87R
#WESTON 4E      N/A         70  50  49  SW3     29.86R
$$

ORZ505-270810-
JOHN DAY BASIN

CITY            SKY/WX      TMP DP  RH  WIND    PRES   REMARKS
JOHN DAY        CLEAR       73  44  35  CALM    30.11R
#DAYVILLE SCHOOLN/A         74  38  27  CALM    30.01R
#MITCHELL       N/A         64  47  54  CALM    30.25R
#MITCHELL 8NW   N/A         70  36  29  CALM    30.09S
#MONUMENT HS    N/A         69  47  45  CALM    29.90R
#MT. VERNON 5SE N/A         68  42  39  CALM    30.08R
#SPRAY SCHOOL   N/A         71  N/A N/A CALM    N/A
$$

ORZ506-270810-
OCHOCO AND JOHN DAY HIGHLANDS

CITY            SKY/WX      TMP DP  RH  WIND    PRES   REMARKS
#BUCK CREEK DOT N/A         70  38  31  CALM    N/A
#HORSE RIDGE DO N/A         59  36  42  SE2     N/A
#KEYES SMT DOT  N/A         66  40  38  NW7     N/A
#PAULINA SCHOOL N/A         73  37  27  NW6     N/A
#PINE MTN OBS   N/A         60  34  37  NW1     N/A
#PRAIRIE CITY   N/A         61  48  62  CALM    30.26
#SENECA         N/A         64  N/A N/A CALM    N/A
$$

ORZ049-270810-
GRANDE RONDE VALLEY

CITY            SKY/WX      TMP DP  RH  WIND    PRES   REMARKS
LA GRANDE       CLEAR       66  41  40  W3      30.05S
#COVE           N/A         65  54  68  VRB2    30.09S
#COVE SCHOOL    N/A         66  51  58  CALM    30.07S
#COVE 6NW       N/A         66  49  54  CALM    29.93S
#ELGIN 3N       N/A         61  44  53  CALM    30.04R
#ELGIN 1E       N/A         65  49  56  CALM    N/A
#IMBLER SCHOOL  N/A         63  48  58  CALM    30.01R
#ISLAND CITY 4N N/A         61  55  81  CALM    30.08S
#LADD CYN DOT   N/A         71  49  46  SE12    N/A
#UNION 1S       N/A         64  51  63  CALM    29.79R
$$

ORZ050-270810-
WALLOWA COUNTY

CITY            SKY/WX      TMP DP  RH  WIND    PRES   REMARKS
JOSEPH AIRPORT  CLEAR       61  46  58  S3      N/A
#ENTERPRISE AP  N/A         49  29  46  CALM    30.05S
#ENTERPRISE HS  N/A         61  52  72  CALM    30.11R
#IMNAHA SCHOOL  N/A         74  53  48  S1      29.98R
#IMNAHA 10S     N/A         70  50  49  SW3     30.03S
#JOSEPH 3N      N/A         56  48  74  CALM    30.14S
#LOSTINE        N/A         64  51  63  CALM    29.71R
#LOSTINE 3SE    N/A         60  49  67  SE1     30.08S
#MT HOWARD 8000 N/A         56  43  62  CALM    30.40F
#PROMISE 1S     N/A         64  49  58  CALM    29.98S
#WALLOWA SCHOOL N/A         61  52  72  CALM    30.03S



$$



USA.gov is the U.S. government's official web portal to all federal, state and local government web resources and services.